Torna al catalogo

FENGYUN 1C DEB

AttivoSSO
NORAD 30903·DEBRIS·🇨🇳 China

Lanciato May 10, 1999 da Taiyuan Satellite Launch Center

Loading…

Prossimi Passaggi (prossime 24 ore)

TLE

In scadenzaSource: Space-Track

Epoca: Sep 6, 2026, 22:37 UTC

1 30903U 99025AYR 26249.94267594  .00000151  00000-0  13378-3 0  9991
2 30903  99.3382 145.5434 0096990  83.1876 278.0310 13.97713615724516

Traccia FENGYUN 1C DEB in tempo reale con AllMySat

Download on the App Store